Погода в Крыловке

Россия / Калининградская область     54°44′25″N   20°03′10″E
темп.,
°C
ветер,
м/с
пор.,
м/с
влажн.,
%
обл.,
%
осадки,
мм/ч
давл.,
гПа
погр.,
м
25 февраля, чт
чт2523:00+5юз699873 0.0 1027151
02:00+5зюз589256 0.0 1027117
05:00+6зюз5794100 0.0 1026120
08:00+5юз579570 0.0 1026101
11:00+6юз598720 0.0 1025153
14:00+8юз6108710 0.0 1025202
17:00+8юз610920 0.0 1023210
20:00+7зюз59950 0.0 1022149
26 февраля, пт
пт2623:00+7з6139334 0.0 1021371
02:00+6з8159220 0.0 1022383
05:00+5з8159083 0.0 1021387
08:00+4з8158791 0.0 1021417
11:00+4з8158490 0.0 1021551
14:00+5з9158469 0.0 1021703
17:00+4з10178789 0.0 1019700
20:00+4з10178889 0.0 1020545
27 февраля, сб
сб2723:00+4зсз10168916 0.0 1019439
02:00+4зсз914898 0.0 1021368
05:00+3ссз612860 0.0 1022324
08:00+3ссз713860 0.0 1024412
11:00+4ссз712780 0.0 1026554
14:00+4ссз711790 0.0 1027498
17:00+3ссз611820 0.0 1028467
20:00+2ссз510890 0.0 1030317
28 февраля, вс
вс2823:00+1ссз47910 0.0 1031141
02:00+1сз35906 0.0 103287
05:00+2зсз358889 0.0 103179
08:00+2сз478794 0.0 1031159
11:00+5сз468080 0.0 1032300
14:00+5зсз457740 0.0 1032270
17:00+4зсз35890 0.0 1032235
20:00+2сз33920 0.0 103347
1 марта, пн
пн123:00+2ссз33850 0.0 103344
02:00+2ссз22880 0.0 103422
05:00+1зсз228718 0.0 103522
08:00+2з23879 0.0 103522
11:00+5з45780 0.0 1036202
14:00+5зюз46770 0.0 1036223
17:00+4з35773 0.0 1035180
20:00+3з338325 0.0 103446